{"data":{"norad_id":57775,"intl_designator":"2023-134E","name":"STARLINK-30305","alt_names":[],"object_type":"PAYLOAD","status":"ACTIVE","operator":null,"country":"US","launch_date":"2023-09-04","launch_site_code":"AFETR","launch_vehicle":null,"mission":null,"orbit_class":"UNKNOWN","rcs_meters":null,"size_class":null,"mass_kg":null,"dimensions":null,"purposes":["comms"],"wikipedia_slug":null,"has_3d_model":false,"image_url":null,"decayed_at":null,"tle_current":{"epoch":"2026-05-24T23:53:10.817376Z","epoch_age_seconds":85850,"freshness":"FRESH","line1":"1 57775U 23134E   26144.99526409  .00002687  00000+0  10719-3 0  9998","line2":"2 57775  43.0031 123.8224 0000982 293.9169  66.1580 15.27562953151170","mean_motion":15.27562953,"eccentricity":9.82e-5,"inclination_deg":43.0031,"raan_deg":123.8224,"arg_perigee_deg":293.9169,"mean_anomaly_deg":66.158,"bstar":0.00010719,"rev_number":15117,"period_min":94.267800693383,"perigee_km":482.4263678777,"apogee_km":483.77391485226,"semimajor_km":6861.237141365,"source":"CELESTRAK","updated_at":"2026-05-25T13:38:18.404516Z"}}}